Location: Rio Negrinho
(26.2394°S, 49.4999°W)
Time: 14:55:06
(UTC+00:00)

Cosmos 44 - Pass Details

Date: 07 June 2020
Orbit: 589 x 773 km, 65.1° (Epoch: 07 July)

Event Time Altitude Azimuth Distance (km) Brightness Sun altitude
Exits shadow 08:22:02 27° 322° (NW) 1,220 4.3 -21.6°
Drops below altitude 10° 08:24:42 10° 353° (N) 1,982 5.7 -21.0°
Sets 08:27:04 0° 3° (N) 2,856 6.7 -20.5°
